sat.trackr.live / text

‹ back to catalog

STARLINK-32197

NORAD 60416 · 2024-141U

PAYLOAD ACTIVE UNKNOWN

§ Identity

Operator
Country
US
Launch date
2024-08-10
Launch site
AFETR
Launch vehicle
Mass (kg)
RCS (m²)

Purposes: comms

External: N2YO · Heavens-Above · Gunter

§ Orbital elements

Epoch: 2026-05-24T23:40:36.261984Z

Period
94.01 min
Inclination
53.1608°
Eccentricity
0.0001343
Mean motion
15.31700831 rev/d
Perigee alt
469.8 km
Apogee alt
471.7 km
Semi-major
6,848.9 km
B*
3.4986e-5
RAAN
238.1164°
Arg perigee
97.7514°
Mean anomaly
262.3640°
Rev number
10,134

§ Raw data

STARLINK-321971 60416U 24141U   26144.98653081  .00000721  00000+0  34986-4 0  99992 60416  53.1608 238.1164 0001343  97.7514 262.3640 15.31700831101342

JSON: /api/v1/satellites/60416 · /tle

For live sub-satellite position, see the globe view (requires WebGL).

§ Visibility from observer

Set your observer location to see the next 7 days of passes ≥ 10°. The values pass through the URL so the page stays shareable.

No JS? Fill the form by hand. The geolocation button needs JavaScript.